| time (UTC) | temp F | wind direction | speed MPH | gust MPH | rain 1hr in | rain 24hr in | rain mn in | humidity % | barometer mb |
| 20260503035504 | 38 | 70 | 1.0 | 5.0 | 0.00 | 0.00 | 0.00 | 97 | 1013.2 |
| 20260503035003 | 39 | 56 | 0.0 | 2.0 | 0.00 | 0.00 | 0.00 | 97 | 1013.3 |
| 20260503034504 | 39 | 56 | 0.0 | 4.0 | 0.00 | 0.00 | 0.00 | 97 | 1013.1 |
| 20260503034001 | 39 | 56 | 0.0 | 5.0 | 0.00 | 0.00 | 0.00 | 97 | 1013.2 |
| 20260503033501 | 39 | 81 | 1.0 | 9.0 | 0.00 | 0.00 | 0.00 | 97 | 1013.3 |
| 20260503033110 | 39 | 57 | 4.0 | 9.0 | 0.00 | 0.00 | 0.00 | 96 | 1013.4 |
| 20260503032558 | 41 | 68 | 2.0 | 7.0 | 0.00 | 0.00 | 0.00 | 97 | 1013.5 |
| 20260503031558 | 44 | 52 | 1.0 | 6.0 | 0.00 | 0.00 | 0.00 | 97 | 1013.5 |
| 20260503031057 | 44 | 104 | 0.0 | 2.0 | 0.00 | 0.00 | 0.00 | 97 | 1013.6 |
| 20260503030557 | 44 | 104 | 0.0 | 2.0 | 0.00 | 0.00 | 0.00 | 97 | 1013.7 |
| 20260503030055 | 44 | 125 | 0.0 | 4.0 | 0.00 | 0.00 | 0.00 | 97 | 1013.8 |
| 20260503025555 | 44 | 95 | 1.0 | 4.0 | 0.00 | 0.00 | 0.00 | 97 | 1013.9 |
| 20260503025053 | 44 | 147 | 0.0 | 2.0 | 0.00 | 0.00 | 0.00 | 97 | 1013.9 |
| 20260503024552 | 43 | 225 | 0.0 | 2.0 | 0.00 | 0.00 | 0.00 | 97 | 1013.8 |
| 20260503024053 | 43 | 225 | 0.0 | 2.0 | 0.00 | 0.00 | 0.00 | 98 | 1013.8 |
| 20260503023550 | 42 | 221 | 0.0 | 2.0 | 0.00 | 0.00 | 0.00 | 98 | 1013.9 |
| 20260503023053 | 42 | 194 | 0.0 | 5.0 | 0.00 | 0.00 | 0.00 | 98 | 1014.0 |
| 20260503022547 | 41 | 141 | 0.0 | 5.0 | 0.00 | 0.00 | 0.00 | 98 | 1014.1 |
| 20260503021548 | 40 | 232 | 1.0 | 5.0 | 0.00 | 0.00 | 0.00 | 98 | 1014.1 |
| 20260503021048 | 40 | 281 | 2.0 | 5.0 | 0.00 | 0.00 | 0.00 | 98 | 1014.1 |
| 20260503020549 | 40 | 267 | 2.0 | 5.0 | 0.00 | 0.00 | 0.00 | 98 | 1014.1 |
| 20260503020048 | 39 | 260 | 2.0 | 5.0 | 0.00 | 0.00 | 0.00 | 98 | 1014.2 |
| 20260503015548 | 39 | 204 | 2.0 | 10.0 | 0.00 | 0.00 | 0.00 | 98 | 1014.2 |
| 20260503015047 | 39 | 230 | 1.0 | 10.0 | 0.00 | 0.00 | 0.00 | 97 | 1014.4 |
| 20260503014547 | 39 | 31 | 1.0 | 6.0 | 0.00 | 0.00 | 0.00 | 97 | 1014.4 |
| 20260503014048 | 39 | 70 | 2.0 | 6.0 | 0.00 | 0.00 | 0.00 | 97 | 1014.2 |
| 20260503013549 | 39 | 59 | 2.0 | 6.0 | 0.00 | 0.00 | 0.00 | 97 | 1014.2 |
| 20260503013047 | 39 | 57 | 2.0 | 6.0 | 0.00 | 0.00 | 0.00 | 97 | 1014.2 |
| 20260503012550 | 39 | 89 | 1.0 | 8.0 | 0.00 | 0.00 | 0.00 | 97 | 1014.3 |
| 20260503011546 | 39 | 60 | 1.0 | 5.0 | 0.00 | 0.00 | 0.00 | 98 | 1014.1 |
| 20260503011046 | 39 | 70 | 2.0 | 5.0 | 0.00 | 0.00 | 0.00 | 98 | 1014.3 |
| 20260503010548 | 39 | 101 | 0.0 | 4.0 | 0.00 | 0.00 | 0.00 | 98 | 1014.2 |
| 20260503010047 | 39 | 65 | 0.0 | 4.0 | 0.00 | 0.00 | 0.00 | 98 | 1014.3 |
| 20260503005547 | 39 | 150 | 1.0 | 2.0 | 0.00 | 0.00 | 0.00 | 97 | 1014.3 |
| 20260503005051 | 39 | 170 | 0.0 | 4.0 | 0.00 | 0.00 | 0.00 | 98 | 1014.1 |
| 20260503004548 | 38 | 170 | 0.0 | 4.0 | 0.00 | 0.00 | 0.00 | 98 | 1014.2 |
| 20260503004047 | 38 | 161 | 1.0 | 5.0 | 0.00 | 0.00 | 0.00 | 98 | 1014.3 |
| 20260503003546 | 38 | 118 | 1.0 | 5.0 | 0.00 | 0.00 | 0.00 | 98 | 1014.3 |
| 20260503003046 | 38 | 171 | 0.0 | 5.0 | 0.00 | 0.00 | 0.00 | 98 | 1014.4 |
| 20260503002546 | 39 | 41 | 0.0 | 5.0 | 0.00 | 0.00 | 0.00 | 97 | 1014.4 |
| 20260503001548 | 39 | 73 | 1.0 | 5.0 | 0.00 | 0.00 | 0.00 | 98 | 1014.2 |
| 20260503001051 | 39 | 57 | 1.0 | 4.0 | 0.00 | 0.00 | 0.00 | 98 | 1014.2 |
| 20260503000547 | 39 | 91 | 0.0 | 4.0 | 0.00 | 0.00 | 0.00 | 98 | 1014.2 |
| 20260503000049 | 39 | 91 | 1.0 | 4.0 | 0.00 | 0.00 | 0.00 | 98 | 1014.3 |
| 20260502235547 | 39 | 197 | 0.0 | 5.0 | 0.00 | 0.00 | 0.00 | 98 | 1014.2 |
| 20260502235047 | 39 | 218 | 1.0 | 5.0 | 0.00 | 0.00 | 0.00 | 98 | 1014.2 |
| 20260502234556 | 38 | 139 | 0.0 | 2.0 | 0.00 | 0.00 | 0.00 | 98 | 1014.1 |
| 20260502234047 | 38 | 137 | 0.0 | 5.0 | 0.00 | 0.00 | 0.00 | 98 | 1014.2 |
| 20260502233547 | 38 | 145 | 1.0 | 6.0 | 0.00 | 0.00 | 0.00 | 98 | 1014.2 |
| 20260502233146 | 38 | 186 | 2.0 | 6.0 | 0.00 | 0.00 | 0.00 | 98 | 1014.2 |
| 20260502232547 | 38 | 184 | 0.0 | 2.0 | 0.00 | 0.00 | 0.00 | 98 | 1014.1 |
| 20260502231555 | 38 | 185 | 1.0 | 4.0 | 0.00 | 0.00 | 0.00 | 98 | 1014.1 |
| 20260502231045 | 38 | 189 | 1.0 | 4.0 | 0.00 | 0.00 | 0.00 | 98 | 1014.2 |
| 20260502230546 | 38 | 252 | 0.0 | 4.0 | 0.00 | 0.00 | 0.00 | 98 | 1014.2 |
| 20260502230045 | 38 | 102 | 0.0 | 6.0 | 0.00 | 0.00 | 0.00 | 98 | 1014.3 |
| 20260502225545 | 38 | 43 | 2.0 | 6.0 | 0.00 | 0.00 | 0.00 | 97 | 1014.3 |
| 20260502225045 | 38 | 56 | 1.0 | 3.0 | 0.00 | 0.00 | 0.00 | 98 | 1014.1 |
| 20260502224544 | 39 | 46 | 0.0 | 4.0 | 0.00 | 0.00 | 0.00 | 98 | 1014.1 |
| 20260502224045 | 39 | 50 | 0.0 | 5.0 | 0.00 | 0.00 | 0.00 | 98 | 1014.1 |
| 20260502223546 | 39 | 57 | 2.0 | 5.0 | 0.00 | 0.00 | 0.00 | 98 | 1014.2 |
| 20260502223045 | 39 | 68 | 1.0 | 4.0 | 0.00 | 0.00 | 0.00 | 98 | 1014.1 |
| 20260502222545 | 39 | 68 | 1.0 | 4.0 | 0.00 | 0.00 | 0.00 | 98 | 1014.0 |
| 20260502221544 | 39 | 81 | 1.0 | 4.0 | 0.00 | 0.00 | 0.00 | 98 | 1014.0 |
| 20260502221048 | 39 | 158 | 0.0 | 2.0 | 0.00 | 0.00 | 0.00 | 98 | 1014.0 |
| 20260502220544 | 39 | 175 | 0.0 | 2.0 | 0.00 | 0.00 | 0.00 | 98 | 1014.1 |
| 20260502220043 | 38 | 175 | 0.0 | 1.0 | 0.00 | 0.00 | 0.00 | 98 | 1014.0 |
| 20260502215543 | 38 | 175 | 0.0 | 2.0 | 0.00 | 0.00 | 0.00 | 97 | 1014.1 |
| 20260502215042 | 38 | 175 | 0.0 | 4.0 | 0.00 | 0.00 | 0.00 | 97 | 1014.1 |
| 20260502214544 | 38 | 190 | 1.0 | 5.0 | 0.00 | 0.00 | 0.00 | 97 | 1014.2 |
| 20260502214042 | 38 | 153 | 0.0 | 5.0 | 0.00 | 0.00 | 0.00 | 97 | 1014.2 |
| 20260502213542 | 38 | 75 | 1.0 | 6.0 | 0.00 | 0.00 | 0.00 | 97 | 1014.3 |
| 20260502213042 | 38 | 106 | 1.0 | 6.0 | 0.00 | 0.00 | 0.00 | 97 | 1014.3 |
| 20260502212541 | 38 | 172 | 1.0 | 7.0 | 0.00 | 0.00 | 0.00 | 97 | 1014.3 |
| 20260502211542 | 38 | 39 | 2.0 | 3.0 | 0.00 | 0.00 | 0.00 | 98 | 1014.2 |
| 20260502211042 | 38 | 57 | 0.0 | 6.0 | 0.00 | 0.00 | 0.00 | 98 | 1014.2 |
| 20260502210541 | 38 | 56 | 0.0 | 6.0 | 0.00 | 0.00 | 0.00 | 97 | 1014.3 |
| 20260502210041 | 38 | 101 | 2.0 | 9.0 | 0.00 | 0.00 | 0.00 | 97 | 1014.3 |
| 20260502205541 | 38 | 172 | 1.0 | 6.0 | 0.00 | 0.00 | 0.00 | 98 | 1014.3 |
| 20260502205043 | 38 | 100 | 3.0 | 6.0 | 0.00 | 0.00 | 0.00 | 98 | 1014.2 |
| 20260502204541 | 38 | 71 | 3.0 | 6.0 | 0.00 | 0.00 | 0.00 | 98 | 1014.3 |
| 20260502204041 | 39 | 95 | 1.0 | 7.0 | 0.00 | 0.00 | 0.00 | 97 | 1014.3 |
| 20260502203543 | 39 | 97 | 2.0 | 7.0 | 0.00 | 0.00 | 0.00 | 97 | 1014.3 |
| 20260502203042 | 39 | 78 | 1.0 | 4.0 | 0.00 | 0.00 | 0.00 | 98 | 1014.2 |
| 20260502202544 | 39 | 45 | 0.0 | 5.0 | 0.00 | 0.00 | 0.00 | 98 | 1014.3 |
| 20260502201546 | 39 | 62 | 3.0 | 8.0 | 0.00 | 0.00 | 0.00 | 97 | 1014.4 |
| 20260502201040 | 40 | 74 | 0.0 | 4.0 | 0.00 | 0.00 | 0.00 | 98 | 1014.4 |
| 20260502200541 | 40 | 83 | 1.0 | 6.0 | 0.00 | 0.00 | 0.00 | 98 | 1014.4 |
| 20260502200040 | 40 | 72 | 2.0 | 6.0 | 0.00 | 0.00 | 0.00 | 98 | 1014.4 |
| 20260502195541 | 40 | 90 | 2.0 | 8.0 | 0.00 | 0.00 | 0.00 | 98 | 1014.3 |
| 20260502195039 | 40 | 72 | 2.0 | 8.0 | 0.00 | 0.00 | 0.00 | 98 | 1014.3 |
| 20260502194541 | 40 | 66 | 3.0 | 5.0 | 0.00 | 0.00 | 0.00 | 98 | 1014.3 |
| 20260502194043 | 39 | 74 | 2.0 | 5.0 | 0.00 | 0.00 | 0.00 | 98 | 1014.3 |
| 20260502193539 | 39 | 71 | 3.0 | 5.0 | 0.00 | 0.00 | 0.00 | 98 | 1014.3 |
| 20260502193039 | 39 | 115 | 1.0 | 5.0 | 0.00 | 0.00 | 0.00 | 98 | 1014.4 |
| 20260502192540 | 40 | 62 | 2.0 | 7.0 | 0.00 | 0.00 | 0.00 | 98 | 1014.4 |
| 20260502191544 | 40 | 62 | 3.0 | 7.0 | 0.00 | 0.00 | 0.00 | 98 | 1014.4 |
| 20260502191039 | 40 | 39 | 2.0 | 6.0 | 0.00 | 0.00 | 0.00 | 98 | 1014.4 |
| 20260502190539 | 40 | 51 | 3.0 | 6.0 | 0.00 | 0.00 | 0.00 | 98 | 1014.3 |
| 20260502190039 | 40 | 61 | 2.0 | 5.0 | 0.00 | 0.00 | 0.00 | 98 | 1014.3 |
| 20260502185538 | 40 | 64 | 1.0 | 7.0 | 0.00 | 0.00 | 0.00 | 98 | 1014.3 |
| 20260502185038 | 40 | 77 | 3.0 | 7.0 | 0.00 | 0.00 | 0.00 | 98 | 1014.3 |
| 20260502184551 | 39 | 54 | 2.0 | 5.0 | 0.00 | 0.00 | 0.00 | 98 | 1014.3 |
| 20260502184038 | 39 | 52 | 1.0 | 6.0 | 0.00 | 0.00 | 0.00 | 97 | 1014.3 |
| 20260502183538 | 39 | 47 | 2.0 | 7.0 | 0.00 | 0.00 | 0.00 | 97 | 1014.3 |
| 20260502183038 | 39 | 68 | 3.0 | 7.0 | 0.00 | 0.00 | 0.00 | 98 | 1014.3 |
| 20260502182538 | 40 | 39 | 1.0 | 6.0 | 0.00 | 0.00 | 0.00 | 98 | 1014.2 |
| 20260502181539 | 40 | 72 | 2.0 | 6.0 | 0.00 | 0.00 | 0.00 | 98 | 1014.4 |
| 20260502181037 | 39 | 55 | 1.0 | 5.0 | 0.00 | 0.00 | 0.00 | 98 | 1014.4 |
| 20260502180535 | 39 | 62 | 1.0 | 6.0 | 0.00 | 0.00 | 0.00 | 98 | 1014.5 |
| 20260502164030 | 39 | 67 | 2.0 | 6.0 | 0.00 | 0.00 | 0.00 | 97 | 1015.1 |
| 20260502163530 | 39 | 71 | 1.0 | 5.0 | 0.00 | 0.00 | 0.00 | 97 | 1015.2 |
| 20260502163032 | 39 | 68 | 2.0 | 5.0 | 0.00 | 0.00 | 0.00 | 97 | 1015.4 |
| 20260502162530 | 39 | 60 | 1.0 | 3.0 | 0.00 | 0.00 | 0.00 | 97 | 1015.3 |
| 20260502161530 | 38 | 71 | 1.0 | 7.0 | 0.00 | 0.00 | 0.00 | 97 | 1015.5 |
| 20260502161030 | 39 | 64 | 5.0 | 7.0 | 0.00 | 0.00 | 0.00 | 97 | 1015.4 |
| 20260502160534 | 39 | 70 | 1.0 | 6.0 | 0.00 | 0.00 | 0.00 | 97 | 1015.3 |
| 20260502151525 | 39 | 99 | 2.0 | 4.0 | 0.00 | 0.00 | 0.00 | 98 | 1016.1 |
| 20260502151024 | 39 | 56 | 0.0 | 1.0 | 0.00 | 0.00 | 0.00 | 97 | 1016.2 |
| 20260502150524 | 39 | 56 | 0.0 | 4.0 | 0.00 | 0.00 | 0.00 | 98 | 1016.2 |
| 20260502130516 | 39 | 66 | 4.0 | 7.0 | 0.00 | 0.00 | 0.00 | 98 | 1016.9 |
| 20260502123512 | 39 | 93 | 1.0 | 5.0 | 0.00 | 0.00 | 0.00 | 97 | 1017.1 |
| 20260502123012 | 39 | 66 | 2.0 | 8.0 | 0.00 | 0.00 | 0.00 | 97 | 1017.2 |
| 20260502122512 | 39 | 52 | 3.0 | 8.0 | 0.00 | 0.00 | 0.00 | 98 | 1017.2 |
| 20260502121532 | 38 | 64 | 0.0 | 4.0 | 0.00 | 0.00 | 0.00 | 97 | 1017.4 |
| 20260502121012 | 38 | 48 | 0.0 | 2.0 | 0.00 | 0.00 | 0.00 | 98 | 1017.4 |
| 20260502120512 | 37 | 62 | 0.0 | 5.0 | 0.00 | 0.00 | 0.00 | 97 | 1017.3 |
| 20260502115514 | 37 | 68 | 2.0 | 5.0 | 0.00 | 0.00 | 0.00 | 97 | 1017.4 |
| 20260502115010 | 37 | 67 | 2.0 | 6.0 | 0.00 | 0.00 | 0.00 | 97 | 1017.3 |
| 20260502114511 | 37 | 68 | 4.0 | 6.0 | 0.00 | 0.00 | 0.00 | 97 | 1017.4 |
| 20260502114010 | 37 | 64 | 2.0 | 5.0 | 0.00 | 0.00 | 0.00 | 97 | 1017.4 |
| 20260502113511 | 38 | 87 | 2.0 | 5.0 | 0.00 | 0.00 | 0.00 | 97 | 1017.4 |
| 20260502113010 | 38 | 68 | 2.0 | 5.0 | 0.00 | 0.00 | 0.00 | 97 | 1017.3 |
| 20260502112509 | 38 | 81 | 2.0 | 5.0 | 0.00 | 0.00 | 0.00 | 97 | 1017.3 |
| 20260502111510 | 39 | 70 | 3.0 | 6.0 | 0.00 | 0.00 | 0.00 | 98 | 1017.5 |
| 20260502111011 | 39 | 39 | 2.0 | 6.0 | 0.00 | 0.00 | 0.00 | 98 | 1017.4 |
| 20260502110510 | 39 | 8 | 2.0 | 5.0 | 0.00 | 0.00 | 0.00 | 98 | 1017.5 |
| 20260502110010 | 39 | 66 | 2.0 | 5.0 | 0.00 | 0.00 | 0.00 | 97 | 1017.5 |
| 20260502105510 | 39 | 70 | 2.0 | 5.0 | 0.00 | 0.00 | 0.00 | 97 | 1017.5 |
| 20260502105013 | 39 | 52 | 0.0 | 2.0 | 0.00 | 0.00 | 0.00 | 98 | 1017.4 |
| 20260502104508 | 39 | 58 | 0.0 | 4.0 | 0.00 | 0.00 | 0.00 | 97 | 1017.5 |
| 20260502104008 | 39 | 58 | 1.0 | 4.0 | 0.00 | 0.00 | 0.00 | 97 | 1017.6 |
| 20260502103507 | 38 | 52 | 1.0 | 4.0 | 0.00 | 0.00 | 0.00 | 97 | 1017.7 |
| 20260502103008 | 38 | 47 | 1.0 | 5.0 | 0.00 | 0.00 | 0.00 | 97 | 1017.6 |
| 20260502102508 | 38 | 36 | 1.0 | 5.0 | 0.00 | 0.00 | 0.00 | 97 | 1017.6 |
| 20260502101512 | 38 | 64 | 4.0 | 7.0 | 0.00 | 0.00 | 0.00 | 98 | 1017.5 |
| 20260502101007 | 38 | 66 | 3.0 | 5.0 | 0.00 | 0.00 | 0.00 | 98 | 1017.4 |
| 20260502100507 | 38 | 39 | 1.0 | 6.0 | 0.00 | 0.00 | 0.00 | 97 | 1017.4 |
| 20260502091503 | 38 | 68 | 1.0 | 5.0 | 0.00 | 0.00 | 0.00 | 97 | 1017.7 |
| 20260502091002 | 38 | 70 | 0.0 | 5.0 | 0.00 | 0.00 | 0.00 | 97 | 1017.6 |
| 20260502090502 | 38 | 63 | 1.0 | 5.0 | 0.00 | 0.00 | 0.00 | 97 | 1017.6 |
| 20260502071055 | 38 | 54 | 0.0 | 5.0 | 0.00 | 0.00 | 0.00 | 97 | 1018.0 |
| 20260502070555 | 38 | 72 | 1.0 | 5.0 | 0.00 | 0.00 | 0.00 | 97 | 1017.9 |
| 20260502070055 | 37 | 72 | 1.0 | 5.0 | 0.00 | 0.00 | 0.00 | 97 | 1018.0 |
| 20260502065555 | 38 | 64 | 1.0 | 5.0 | 0.00 | 0.00 | 0.00 | 97 | 1017.9 |
| 20260502065053 | 38 | 63 | 1.0 | 6.0 | 0.00 | 0.00 | 0.00 | 97 | 1017.9 |
| 20260502064558 | 38 | 60 | 2.0 | 5.0 | 0.00 | 0.00 | 0.00 | 97 | 1017.9 |
| 20260502064055 | 38 | 65 | 1.0 | 5.0 | 0.00 | 0.00 | 0.00 | 97 | 1017.9 |
| 20260502063553 | 38 | 44 | 1.0 | 5.0 | 0.00 | 0.00 | 0.00 | 97 | 1018.0 |
| 20260502063053 | 38 | 66 | 1.0 | 5.0 | 0.00 | 0.00 | 0.00 | 97 | 1018.0 |
| 20260502062551 | 38 | 76 | 2.0 | 5.0 | 0.00 | 0.00 | 0.00 | 97 | 1018.0 |
| 20260502062150 | 38 | 93 | 1.0 | 5.0 | 0.00 | 0.00 | 0.00 | 97 | 1018.0 |
| 20260502061554 | 38 | 70 | 1.0 | 5.0 | 0.00 | 0.00 | 0.00 | 97 | 1017.9 |
| 20260502061051 | 38 | 74 | 1.0 | 5.0 | 0.00 | 0.00 | 0.00 | 97 | 1018.0 |
| 20260502060550 | 38 | 57 | 2.0 | 5.0 | 0.00 | 0.00 | 0.00 | 97 | 1018.0 |
| 20260502060050 | 37 | 56 | 0.0 | 6.0 | 0.00 | 0.00 | 0.00 | 97 | 1018.1 |
| 20260502055551 | 37 | 65 | 1.0 | 5.0 | 0.00 | 0.00 | 0.00 | 97 | 1018.1 |
| 20260502055049 | 37 | 67 | 2.0 | 5.0 | 0.00 | 0.00 | 0.00 | 97 | 1018.2 |
| 20260502054549 | 37 | 66 | 2.0 | 6.0 | 0.00 | 0.00 | 0.00 | 97 | 1018.2 |
| 20260502054050 | 37 | 62 | 2.0 | 6.0 | 0.00 | 0.00 | 0.00 | 97 | 1018.1 |
| 20260502053547 | 37 | 70 | 1.0 | 6.0 | 0.00 | 0.00 | 0.00 | 97 | 1018.1 |
| 20260502053047 | 37 | 66 | 2.0 | 6.0 | 0.00 | 0.00 | 0.00 | 97 | 1018.2 |
| 20260502052545 | 37 | 49 | 1.0 | 4.0 | 0.00 | 0.00 | 0.00 | 97 | 1018.3 |
| 20260502052146 | 37 | 52 | 0.0 | 4.0 | 0.00 | 0.00 | 0.00 | 97 | 1018.4 |
| 20260502051545 | 37 | 51 | 0.0 | 4.0 | 0.00 | 0.00 | 0.00 | 97 | 1018.5 |
| 20260502051044 | 38 | 61 | 0.0 | 4.0 | 0.00 | 0.00 | 0.00 | 97 | 1018.5 |
| 20260502050544 | 38 | 62 | 0.0 | 3.0 | 0.00 | 0.00 | 0.00 | 97 | 1018.4 |
| 20260502050044 | 38 | 58 | 1.0 | 5.0 | 0.00 | 0.00 | 0.00 | 97 | 1018.4 |
| 20260502045643 | 37 | 58 | 1.0 | 5.0 | 0.00 | 0.00 | 0.00 | 97 | 1018.5 |
| 20260502045042 | 37 | 64 | 0.0 | 2.0 | 0.00 | 0.00 | 0.00 | 97 | 1018.5 |
| 20260502044541 | 37 | 62 | 0.0 | 4.0 | 0.00 | 0.00 | 0.00 | 97 | 1018.6 |
| 20260502044040 | 37 | 62 | 1.0 | 4.0 | 0.00 | 0.00 | 0.00 | 97 | 1018.7 |
| 20260502043540 | 37 | 62 | 1.0 | 3.0 | 0.00 | 0.00 | 0.00 | 97 | 1018.7 |
| 20260502043040 | 37 | 43 | 0.0 | 4.0 | 0.00 | 0.00 | 0.00 | 97 | 1018.8 |
| 20260502042542 | 37 | 53 | 0.0 | 3.0 | 0.00 | 0.00 | 0.00 | 97 | 1018.9 |
| 20260502042138 | 37 | 62 | 0.0 | 4.0 | 0.00 | 0.00 | 0.00 | 97 | 1019.0 |
| 20260502041539 | 37 | 62 | 0.0 | 4.0 | 0.00 | 0.00 | 0.00 | 97 | 1019.0 |
| 20260502041040 | 37 | 62 | 0.0 | 4.0 | 0.00 | 0.00 | 0.00 | 97 | 1019.2 |
| 20260502040537 | 37 | 47 | 0.0 | 5.0 | 0.00 | 0.00 | 0.00 | 97 | 1019.2 |
| 20260502040036 | 37 | 69 | 0.0 | 4.0 | 0.00 | 0.00 | 0.00 | 97 | 1019.2 |